Regional Weather Roundup
Issued by NWS

Home | Current Version | Previous Version | Text Only | Print | Product List | Glossary Off
Versions: 1 2 3 4 5 6 7 8 9 10 11 12 13 14 15 16 17 18 19 20 21 22 23 24 25 26 27 28 29 30 31 32 33 34 35 36 37 38 39 40 41 42 43 44 45 46 47 48 49 50

000
ASUS45 KBOI 211210
RWRID
WEATHER ROUNDUP FOR IDAHO
NATIONAL WEATHER SERVICE BOISE ID
600 AM MDT TUE OCT 21 2014

NOTE: "FAIR" INDICATES FEW OR NO CLOUDS BELOW 12000 FEET
WITH NO SIGNIFICANT WEATHER AND/OR OBSTRUCTIONS TO VISIBILITY

IDZ012-014-211300-
SOUTHWEST IDAHO


CITY           SKY/WX    TMP DP  RH WIND       PRES   REMARKS
BOISE          CLOUDY    49  45  86 SE5       29.90F
CALDWELL       CLOUDY    48  37  66 SE7       29.93R
MOUNTAIN HOME  LGT RAIN  48  48 100 N5        29.96R
$$

IDZ016-017-211300-
SOUTHCENTRAL IDAHO


CITY           SKY/WX    TMP DP  RH WIND       PRES   REMARKS
BURLEY         LGT RAIN  50  40  68 W20G30    29.88R
JEROME         CLOUDY    46  42  86 W37G54    29.92R
TWIN FALLS     LGT RAIN  49  42  77 W29G40    29.93R
$$

IDZ019>023-211300-
SOUTHEAST IDAHO


CITY           SKY/WX    TMP DP  RH WIND       PRES   REMARKS
IDAHO FALLS    CLOUDY    59  40  49 SW16G23   29.85R
POCATELLO      LGT RAIN  52  44  74 S14       29.87R
REXBURG        CLOUDY    50  39  66 E8        29.83S
$$

IDZ006-010-011-018-031-032-211300-
CENTRAL IDAHO MOUNTAINS


CITY           SKY/WX    TMP DP  RH WIND       PRES   REMARKS
MCCALL         LGT RAIN  43  41  93 S3        29.87R
HAILEY         MOCLDY    46  39  76 SE13      29.81R
STANLEY          N/A     41  38  89 N7        29.87F
SALMON         CLOUDY    48  43  81 N7        29.73F
CHALLIS        CLOUDY    49  42  77 VRB3      29.77S
$$

IDZ002-004-006-007-026-211300-
NORTHERN IDAHO


CITY           SKY/WX    TMP DP  RH WIND       PRES   REMARKS
LEWISTON       CLOUDY    52  49  89 E7        29.86F
LOWELL           N/A     50  49  96 CALM      29.90R
COEUR D`ALENE  CLOUDY    48  45  87 SE5       29.85S
MULLAN PASS    LGT RAIN  37  37 100 NW8       29.84S VSB 1/2 WCI  31
$$



USA.gov is the U.S. government's official web portal to all federal, state and local government web resources and services.